Location: Forst
(46.9333°N, 15.4333°E)
Time: 06:41:00
(UTC+00:00)

Cosmos 44 Rocket - Pass Details

Date: 01 December 2020
Orbit: 639 x 751 km, 65.1° (Epoch: 18 January)

Event Time Altitude Azimuth Distance (km) Brightness Sun altitude
Rises 17:36:25 0° 322° (NW) 3,171 7.1 -24.0°
Reaches altitude 10° 17:38:46 10° 321° (NW) 2,256 6.3 -24.4°
Maximum altitude 17:43:58 80° 236° (SW) 766 3.4 -25.3°
Enters shadow 17:45:10 54° 161° (SSE) 912 3.7 -25.5°
